Year,Month,Day,Hour,Minute,Value (Times are PST for temperature in C)
2019,02,26,00,00,-3.40
2019,02,26,00,02,-3.40
2019,02,26,00,03,-3.40
2019,02,26,00,04,-3.50
2019,02,26,00,05,-3.50
2019,02,26,00,07,-3.50
2019,02,26,00,08,-3.60
2019,02,26,00,09,-3.60
2019,02,26,00,10,-3.60
2019,02,26,00,12,-3.60
2019,02,26,00,13,-3.60
2019,02,26,00,15,-3.60
2019,02,26,00,16,-3.60
2019,02,26,00,17,-3.60
2019,02,26,00,18,-3.60
2019,02,26,00,19,-3.70
2019,02,26,00,20,-3.70
2019,02,26,00,21,-3.70
2019,02,26,00,23,-3.60
2019,02,26,00,24,-3.60
2019,02,26,00,25,-3.60
2019,02,26,00,26,-3.60
2019,02,26,00,27,-3.60
2019,02,26,00,28,-3.60
2019,02,26,00,29,-3.60
2019,02,26,00,30,-3.60
2019,02,26,00,31,-3.60
2019,02,26,00,32,-3.60
2019,02,26,00,33,-3.60
2019,02,26,00,34,-3.70
2019,02,26,00,35,-3.70
2019,02,26,00,37,-3.70
2019,02,26,00,38,-3.70
2019,02,26,00,40,-3.70
2019,02,26,00,41,-3.70
2019,02,26,00,42,-3.70
2019,02,26,00,43,-3.70
2019,02,26,00,44,-3.70
2019,02,26,00,46,-3.70
2019,02,26,00,47,-3.70
2019,02,26,00,48,-3.80
2019,02,26,00,50,-3.80
2019,02,26,00,51,-3.80
2019,02,26,00,53,-3.80
2019,02,26,00,54,-3.80
2019,02,26,00,55,-3.80
2019,02,26,00,56,-3.80
2019,02,26,00,57,-3.80
2019,02,26,00,59,-3.80
2019,02,26,01,01,-3.90
2019,02,26,01,02,-3.90
2019,02,26,01,04,-3.90
2019,02,26,01,05,-3.90
2019,02,26,01,06,-3.90
2019,02,26,01,07,-3.90
2019,02,26,01,08,-4.00
2019,02,26,01,09,-4.00
2019,02,26,01,10,-4.00
2019,02,26,01,11,-4.00
2019,02,26,01,13,-4.00
2019,02,26,01,14,-4.10
2019,02,26,01,15,-4.00
2019,02,26,01,16,-4.10
2019,02,26,01,19,-4.10
2019,02,26,01,21,-4.10
2019,02,26,01,22,-4.10
2019,02,26,01,25,-4.10
2019,02,26,01,26,-4.20
2019,02,26,01,27,-4.10
2019,02,26,01,28,-4.20
2019,02,26,01,30,-4.20
2019,02,26,01,31,-4.20
2019,02,26,01,32,-4.20
2019,02,26,01,33,-4.20
2019,02,26,01,34,-4.20
2019,02,26,01,36,-4.20
2019,02,26,01,37,-4.20
2019,02,26,01,38,-4.30
2019,02,26,01,40,-4.30
2019,02,26,01,41,-4.30
2019,02,26,01,42,-4.30
2019,02,26,01,44,-4.30
2019,02,26,01,45,-4.30
2019,02,26,01,46,-4.30
2019,02,26,01,47,-4.30
2019,02,26,01,49,-4.30
2019,02,26,01,50,-4.30
2019,02,26,01,52,-4.40
2019,02,26,01,53,-4.40
2019,02,26,01,55,-4.40
2019,02,26,01,56,-4.40
2019,02,26,01,58,-4.40
2019,02,26,01,59,-4.40
2019,02,26,02,00,-4.40
2019,02,26,02,02,-4.40
2019,02,26,02,03,-4.40
2019,02,26,02,04,-4.40
2019,02,26,02,05,-4.40
2019,02,26,02,08,-4.50
2019,02,26,02,09,-4.50
2019,02,26,02,10,-4.50
2019,02,26,02,12,-4.50
2019,02,26,02,14,-4.60
2019,02,26,02,15,-4.50
2019,02,26,02,16,-4.60
2019,02,26,02,18,-4.60
2019,02,26,02,19,-4.60
2019,02,26,02,20,-4.60
2019,02,26,02,21,-4.60
2019,02,26,02,23,-4.60
2019,02,26,02,24,-4.60
2019,02,26,02,26,-4.60
2019,02,26,02,27,-4.70
2019,02,26,02,28,-4.70
2019,02,26,02,29,-4.70
2019,02,26,02,32,-4.70
2019,02,26,02,33,-4.70
2019,02,26,02,35,-4.80
2019,02,26,02,36,-4.80
2019,02,26,02,37,-4.80
2019,02,26,02,39,-4.80
2019,02,26,02,40,-4.80
2019,02,26,02,42,-4.80
2019,02,26,02,43,-4.80
2019,02,26,02,44,-4.80
2019,02,26,02,45,-4.80
2019,02,26,02,47,-4.90
2019,02,26,02,49,-4.90
2019,02,26,02,50,-4.90
2019,02,26,02,51,-4.90
2019,02,26,02,54,-4.90
2019,02,26,02,55,-4.90
2019,02,26,02,56,-4.90
2019,02,26,02,58,-4.90
2019,02,26,02,59,-4.90
2019,02,26,03,01,-4.90
2019,02,26,03,02,-4.90
2019,02,26,03,05,-4.90
2019,02,26,03,06,-4.90
2019,02,26,03,07,-4.90
2019,02,26,03,09,-4.90
2019,02,26,03,11,-4.90
2019,02,26,03,12,-5.00
2019,02,26,03,13,-5.00
2019,02,26,03,15,-5.00
2019,02,26,03,17,-5.00
2019,02,26,03,18,-5.10
2019,02,26,03,20,-5.10
2019,02,26,03,22,-5.10
2019,02,26,03,23,-5.10
2019,02,26,03,24,-5.10
2019,02,26,03,26,-5.10
2019,02,26,03,27,-5.10
2019,02,26,03,28,-5.10
2019,02,26,03,29,-5.10
2019,02,26,03,31,-5.20
2019,02,26,03,32,-5.20
2019,02,26,03,34,-5.20
2019,02,26,03,35,-5.20
2019,02,26,03,36,-5.20
2019,02,26,03,39,-5.20
2019,02,26,03,41,-5.20
2019,02,26,03,43,-5.20
2019,02,26,03,45,-5.20
2019,02,26,03,46,-5.20
2019,02,26,03,47,-5.20
2019,02,26,03,48,-5.20
2019,02,26,03,50,-5.20
2019,02,26,03,51,-5.20
2019,02,26,03,53,-5.20
2019,02,26,03,54,-5.30
2019,02,26,03,56,-5.30
2019,02,26,03,57,-5.30
2019,02,26,03,58,-5.30
2019,02,26,03,59,-5.30
2019,02,26,04,01,-5.30
2019,02,26,04,02,-5.30
2019,02,26,04,04,-5.30
2019,02,26,04,05,-5.30
2019,02,26,04,06,-5.30
2019,02,26,04,07,-5.30
2019,02,26,04,09,-5.30
2019,02,26,04,11,-5.30
2019,02,26,04,12,-5.30
2019,02,26,04,13,-5.30
2019,02,26,04,14,-5.30
2019,02,26,04,16,-5.40
2019,02,26,04,17,-5.40
2019,02,26,04,18,-5.40
2019,02,26,04,20,-5.40
2019,02,26,04,21,-5.40
2019,02,26,04,22,-5.40
2019,02,26,04,24,-5.40
2019,02,26,04,25,-5.40
2019,02,26,04,26,-5.50
2019,02,26,04,27,-5.40
2019,02,26,04,28,-5.50
2019,02,26,04,30,-5.40
2019,02,26,04,31,-5.40
2019,02,26,04,33,-5.50
2019,02,26,04,35,-5.50
2019,02,26,04,36,-5.50
2019,02,26,04,37,-5.60
2019,02,26,04,39,-5.60
2019,02,26,04,40,-5.60
2019,02,26,04,42,-5.60
2019,02,26,04,43,-5.60
2019,02,26,04,45,-5.60
2019,02,26,04,46,-5.60
2019,02,26,04,47,-5.70
2019,02,26,04,49,-5.70
2019,02,26,04,51,-5.70
2019,02,26,04,52,-5.70
2019,02,26,04,54,-5.70
2019,02,26,04,55,-5.70
2019,02,26,04,56,-5.70
2019,02,26,04,58,-5.70
2019,02,26,04,59,-5.70
2019,02,26,05,01,-5.60
2019,02,26,05,03,-5.60
2019,02,26,05,05,-5.60
2019,02,26,05,06,-5.60
2019,02,26,05,07,-5.60
2019,02,26,05,09,-5.60
2019,02,26,05,11,-5.60
2019,02,26,05,12,-5.60
2019,02,26,05,13,-5.60
2019,02,26,05,14,-5.60
2019,02,26,05,16,-5.60
2019,02,26,05,17,-5.60
2019,02,26,05,19,-5.60
2019,02,26,05,21,-5.60
2019,02,26,05,22,-5.50
2019,02,26,05,24,-5.60
2019,02,26,05,25,-5.60
2019,02,26,05,27,-5.60
2019,02,26,05,28,-5.60
2019,02,26,05,29,-5.60
2019,02,26,05,31,-5.60
2019,02,26,05,33,-5.70
2019,02,26,05,35,-5.70
2019,02,26,05,37,-5.70
2019,02,26,05,39,-5.70
2019,02,26,05,41,-5.70
2019,02,26,05,42,-5.70
2019,02,26,05,44,-5.70
2019,02,26,05,46,-5.70
2019,02,26,05,47,-5.70
2019,02,26,05,49,-5.80
2019,02,26,05,50,-5.80
2019,02,26,05,52,-5.80
2019,02,26,05,54,-5.80
2019,02,26,05,55,-5.80
2019,02,26,05,57,-5.80
2019,02,26,05,58,-5.80
2019,02,26,06,00,-5.80
2019,02,26,06,01,-5.80
2019,02,26,06,03,-5.90
2019,02,26,06,04,-5.80
2019,02,26,06,06,-5.90
2019,02,26,06,08,-5.90
2019,02,26,06,09,-5.90
2019,02,26,06,11,-5.90
2019,02,26,06,12,-5.90
2019,02,26,06,13,-5.90
2019,02,26,06,15,-5.90
2019,02,26,06,18,-6.00
2019,02,26,06,19,-6.00
2019,02,26,06,21,-6.00
2019,02,26,06,22,-6.00
2019,02,26,06,24,-6.00
2019,02,26,06,25,-6.00
2019,02,26,06,26,-6.00
2019,02,26,06,27,-6.00
2019,02,26,06,28,-6.00
2019,02,26,06,29,-6.00
2019,02,26,06,31,-6.00
2019,02,26,06,32,-6.10
2019,02,26,06,34,-6.10
2019,02,26,06,36,-6.10
2019,02,26,06,37,-6.10
2019,02,26,06,39,-6.10
2019,02,26,06,40,-6.10
2019,02,26,06,42,-6.10
2019,02,26,06,43,-6.10
2019,02,26,06,45,-6.10
2019,02,26,06,46,-6.20
2019,02,26,06,48,-6.10
2019,02,26,06,49,-6.10
2019,02,26,06,51,-6.20
2019,02,26,06,52,-6.20
2019,02,26,06,54,-6.20
2019,02,26,06,55,-6.20
2019,02,26,06,57,-6.20
2019,02,26,06,59,-6.20
2019,02,26,07,00,-6.20
2019,02,26,07,02,-6.10
2019,02,26,07,03,-6.10
2019,02,26,07,05,-6.20
2019,02,26,07,07,-6.10
2019,02,26,07,08,-6.10
2019,02,26,07,10,-6.10
2019,02,26,07,11,-6.10
2019,02,26,07,12,-6.10
2019,02,26,07,15,-6.10
2019,02,26,07,17,-6.00
2019,02,26,07,18,-6.00
2019,02,26,07,20,-6.00
2019,02,26,07,22,-6.10
2019,02,26,07,23,-6.10
2019,02,26,07,24,-6.10
2019,02,26,07,25,-6.20
2019,02,26,07,27,-6.20
2019,02,26,07,29,-6.20
2019,02,26,07,31,-6.20
2019,02,26,07,32,-6.20
2019,02,26,07,34,-6.20
2019,02,26,07,35,-6.20
2019,02,26,07,37,-6.20
2019,02,26,07,38,-6.20
2019,02,26,07,40,-6.10
2019,02,26,07,42,-6.10
2019,02,26,07,44,-6.10
2019,02,26,07,45,-6.10
2019,02,26,07,46,-6.10
2019,02,26,07,48,-6.10
2019,02,26,07,49,-6.10
2019,02,26,07,50,-6.10
2019,02,26,07,51,-6.10
2019,02,26,07,53,-6.00
2019,02,26,07,54,-6.00
2019,02,26,07,56,-5.90
2019,02,26,07,58,-5.90
2019,02,26,08,00,-5.90
2019,02,26,08,01,-5.80
2019,02,26,08,02,-5.80
2019,02,26,08,03,-5.80
2019,02,26,08,04,-5.80
2019,02,26,08,05,-5.80
2019,02,26,08,06,-5.70
2019,02,26,08,08,-5.70
2019,02,26,08,10,-5.60
2019,02,26,08,11,-5.60
2019,02,26,08,13,-5.40
2019,02,26,08,14,-5.40
2019,02,26,08,15,-5.30
2019,02,26,08,16,-5.20
2019,02,26,08,18,-5.20
2019,02,26,08,20,-5.10
2019,02,26,08,21,-4.90
2019,02,26,08,24,-4.80
2019,02,26,08,25,-4.80
2019,02,26,08,26,-4.70
2019,02,26,08,28,-4.70
2019,02,26,08,30,-4.40
2019,02,26,08,32,-4.30
2019,02,26,08,34,-4.30
2019,02,26,08,35,-4.20
2019,02,26,08,37,-4.00
2019,02,26,08,38,-3.90
2019,02,26,08,40,-3.80
2019,02,26,08,41,-3.80
2019,02,26,08,43,-3.60
2019,02,26,08,45,-3.60
2019,02,26,08,47,-3.40
2019,02,26,08,48,-3.30
2019,02,26,08,49,-3.30
2019,02,26,08,50,-3.30
2019,02,26,08,53,-3.20
2019,02,26,08,54,-3.20
2019,02,26,08,56,-3.10
2019,02,26,08,58,-3.10
2019,02,26,09,00,-3.00
2019,02,26,09,02,-2.90
2019,02,26,09,04,-2.80
2019,02,26,09,05,-2.80
2019,02,26,09,06,-2.80
2019,02,26,09,08,-2.70
2019,02,26,09,09,-2.70
2019,02,26,09,10,-2.60
2019,02,26,09,12,-2.60
2019,02,26,09,13,-2.40
2019,02,26,09,14,-2.40
2019,02,26,09,15,-2.30
2019,02,26,09,16,-2.30
2019,02,26,09,18,-2.20
2019,02,26,09,20,-2.10
2019,02,26,09,21,-2.00
2019,02,26,09,22,-1.90
2019,02,26,09,23,-1.90
2019,02,26,09,25,-1.80
2019,02,26,09,26,-1.70
2019,02,26,09,28,-1.60
2019,02,26,09,29,-1.40
2019,02,26,09,30,-1.30
2019,02,26,09,31,-1.20
2019,02,26,09,33,-1.10
2019,02,26,09,34,-0.80
2019,02,26,09,35,-0.80
2019,02,26,09,36,-0.70
2019,02,26,09,37,-0.60
2019,02,26,09,39,-0.50
2019,02,26,09,40,-0.40
2019,02,26,09,41,-0.30
2019,02,26,09,42,-0.30
2019,02,26,09,44,-0.20
2019,02,26,09,45,-0.10
2019,02,26,09,46,-0.10
2019,02,26,09,48,0.20
2019,02,26,09,49,0.20
2019,02,26,09,50,0.30
2019,02,26,09,52,0.40
2019,02,26,09,53,0.50
2019,02,26,09,55,0.70
2019,02,26,09,56,0.80
2019,02,26,09,58,1.10
2019,02,26,10,00,1.30
2019,02,26,10,01,1.40
2019,02,26,10,02,1.50
2019,02,26,10,04,1.60
2019,02,26,10,05,1.70
2019,02,26,10,06,1.70
2019,02,26,10,08,1.80
2019,02,26,10,09,1.80
2019,02,26,10,10,1.90
2019,02,26,10,12,1.90
2019,02,26,10,13,2.00
2019,02,26,10,14,2.00
2019,02,26,10,15,2.00
2019,02,26,10,17,2.10
2019,02,26,10,18,2.10
2019,02,26,10,20,2.20
2019,02,26,10,21,2.10
2019,02,26,10,22,2.10
2019,02,26,10,23,2.10
2019,02,26,10,24,2.10
2019,02,26,10,25,2.10
2019,02,26,10,26,2.10
2019,02,26,10,27,2.10
2019,02,26,10,28,2.20
2019,02,26,10,30,2.20
2019,02,26,10,31,2.20
2019,02,26,10,32,2.30
2019,02,26,10,34,2.30
2019,02,26,10,35,2.40
2019,02,26,10,36,2.40
2019,02,26,10,38,2.40
2019,02,26,10,40,2.50
2019,02,26,10,42,2.60
2019,02,26,10,44,2.60
2019,02,26,10,45,2.60
2019,02,26,10,46,2.60
2019,02,26,10,47,2.60
2019,02,26,10,48,2.70
2019,02,26,10,50,2.70
2019,02,26,10,51,2.70
2019,02,26,10,52,2.70
2019,02,26,10,54,2.60
2019,02,26,10,55,2.60
2019,02,26,10,56,2.70
2019,02,26,10,58,2.70
2019,02,26,11,00,2.70
2019,02,26,11,01,2.70
2019,02,26,11,02,2.70
2019,02,26,11,03,2.70
2019,02,26,11,04,2.70
2019,02,26,11,05,2.70
2019,02,26,11,06,2.70
2019,02,26,11,08,2.70
2019,02,26,11,10,2.80
2019,02,26,11,11,2.80
2019,02,26,11,12,2.80
2019,02,26,11,13,2.80
2019,02,26,11,15,2.80
2019,02,26,11,16,2.80
2019,02,26,11,17,2.80
2019,02,26,11,18,2.90
2019,02,26,11,20,2.90
2019,02,26,11,21,2.90
2019,02,26,11,23,2.90
2019,02,26,11,24,2.90
2019,02,26,11,26,2.90
2019,02,26,11,27,2.90
2019,02,26,11,29,2.90
2019,02,26,11,30,2.90
2019,02,26,11,31,2.90
2019,02,26,11,32,2.90
2019,02,26,11,33,2.90
2019,02,26,11,34,3.00
2019,02,26,11,35,3.10
2019,02,26,11,36,3.10
2019,02,26,11,37,3.10
2019,02,26,11,38,3.10
2019,02,26,11,39,3.10
2019,02,26,11,41,3.10
2019,02,26,11,43,3.10
2019,02,26,11,44,3.20
2019,02,26,11,45,3.20
2019,02,26,11,47,3.20
2019,02,26,11,48,3.30
2019,02,26,11,49,3.40
2019,02,26,11,51,3.40
2019,02,26,11,52,3.50
2019,02,26,11,54,3.60
2019,02,26,11,55,3.50
2019,02,26,11,57,3.40
2019,02,26,11,58,3.40
2019,02,26,11,59,3.40
2019,02,26,12,01,3.40
2019,02,26,12,02,3.40
2019,02,26,12,03,3.40
2019,02,26,12,04,3.40
2019,02,26,12,05,3.40
2019,02,26,12,06,3.40
2019,02,26,12,08,3.40
2019,02,26,12,09,3.40
2019,02,26,12,10,3.60
2019,02,26,12,12,3.60
2019,02,26,12,13,3.60
2019,02,26,12,15,3.60
2019,02,26,12,17,3.60
2019,02,26,12,18,3.60
2019,02,26,12,20,3.50
2019,02,26,12,22,3.50
2019,02,26,12,25,3.60
2019,02,26,12,26,3.60
2019,02,26,12,28,3.60
2019,02,26,12,30,3.60
2019,02,26,12,31,3.60
2019,02,26,12,32,3.60
2019,02,26,12,33,3.70
2019,02,26,12,34,3.70
2019,02,26,12,35,3.70
2019,02,26,12,36,3.70
2019,02,26,12,38,3.70
2019,02,26,12,39,3.70
2019,02,26,12,40,3.70
2019,02,26,12,42,3.70
2019,02,26,12,43,3.70
2019,02,26,12,45,3.80
2019,02,26,12,46,3.80
2019,02,26,12,48,3.90
2019,02,26,12,49,3.90
2019,02,26,12,50,3.90
2019,02,26,12,52,3.90
2019,02,26,12,53,3.90
2019,02,26,12,54,4.00
2019,02,26,12,56,4.00
2019,02,26,12,57,4.00
2019,02,26,12,58,3.90
2019,02,26,12,59,3.90
2019,02,26,13,00,3.90
2019,02,26,13,02,3.90
2019,02,26,13,03,3.90
2019,02,26,13,04,3.90
2019,02,26,13,05,3.90
2019,02,26,13,07,3.80
2019,02,26,13,08,3.90
2019,02,26,13,10,3.90
2019,02,26,13,11,4.10
2019,02,26,13,12,4.10
2019,02,26,13,13,4.20
2019,02,26,13,14,4.20
2019,02,26,13,16,4.20
2019,02,26,13,18,4.20
2019,02,26,13,19,4.20
2019,02,26,13,20,4.20
2019,02,26,13,22,4.20
2019,02,26,13,24,4.20
2019,02,26,13,25,4.20
2019,02,26,13,26,4.30
2019,02,26,13,28,4.30
2019,02,26,13,30,4.40
2019,02,26,13,31,4.40
2019,02,26,13,32,4.30
2019,02,26,13,33,4.30
2019,02,26,13,34,4.30
2019,02,26,13,35,4.30
2019,02,26,13,36,4.30
2019,02,26,13,37,4.40
2019,02,26,13,39,4.30
2019,02,26,13,40,4.30
2019,02,26,13,41,4.30
2019,02,26,13,43,4.30
2019,02,26,13,45,4.40
2019,02,26,13,46,4.40
2019,02,26,13,48,4.40
2019,02,26,13,49,4.40
2019,02,26,13,50,4.40
2019,02,26,13,51,4.40
2019,02,26,13,53,4.40
2019,02,26,13,54,4.40
2019,02,26,13,55,4.40
2019,02,26,13,56,4.50
2019,02,26,13,57,4.60
2019,02,26,13,58,4.60
2019,02,26,13,59,4.60
2019,02,26,14,01,4.60
2019,02,26,14,02,4.60
2019,02,26,14,03,4.60
2019,02,26,14,04,4.60
2019,02,26,14,05,4.60
2019,02,26,14,06,4.60
2019,02,26,14,07,4.60
2019,02,26,14,08,4.60
2019,02,26,14,09,4.70
2019,02,26,14,10,4.70
2019,02,26,14,11,4.70
2019,02,26,14,12,4.70
2019,02,26,14,14,4.50
2019,02,26,14,16,4.40
2019,02,26,14,17,4.30
2019,02,26,14,18,4.40
2019,02,26,14,19,4.40
2019,02,26,14,20,4.40
2019,02,26,14,21,4.40
2019,02,26,14,23,4.30
2019,02,26,14,24,4.40
2019,02,26,14,25,4.40
2019,02,26,14,26,4.40
2019,02,26,14,27,4.50
2019,02,26,14,28,4.50
2019,02,26,14,29,4.60
2019,02,26,14,31,4.70
2019,02,26,14,32,4.70
2019,02,26,14,34,4.70
2019,02,26,14,35,4.80
2019,02,26,14,37,4.80
2019,02,26,14,38,4.70
2019,02,26,14,39,4.70
2019,02,26,14,40,4.60
2019,02,26,14,41,4.60
2019,02,26,14,42,4.50
2019,02,26,14,43,4.50
2019,02,26,14,44,4.50
2019,02,26,14,45,4.50
2019,02,26,14,47,4.40
2019,02,26,14,48,4.30
2019,02,26,14,49,4.30
2019,02,26,14,50,4.30
2019,02,26,14,51,4.30
2019,02,26,14,52,4.30
2019,02,26,14,53,4.30
2019,02,26,14,54,4.30
2019,02,26,14,55,4.30
2019,02,26,14,56,4.30
2019,02,26,14,57,4.20
2019,02,26,14,58,4.20
2019,02,26,14,59,4.20
2019,02,26,15,00,4.10
2019,02,26,15,01,4.10
2019,02,26,15,02,4.10
2019,02,26,15,03,4.10
2019,02,26,15,04,4.10
2019,02,26,15,06,4.10
2019,02,26,15,07,4.10
2019,02,26,15,08,4.10
2019,02,26,15,09,4.20
2019,02,26,15,10,4.20
2019,02,26,15,12,4.20
2019,02,26,15,13,4.20
2019,02,26,15,14,4.20
2019,02,26,15,15,4.20
2019,02,26,15,16,4.30
2019,02,26,15,17,4.30
2019,02,26,15,18,4.30
2019,02,26,15,19,4.30
2019,02,26,15,20,4.20
2019,02,26,15,21,4.20
2019,02,26,15,23,4.20
2019,02,26,15,24,4.20
2019,02,26,15,25,4.10
2019,02,26,15,26,4.10
2019,02,26,15,27,4.10
2019,02,26,15,28,4.10
2019,02,26,15,29,4.10
2019,02,26,15,30,4.10
2019,02,26,15,31,4.10
2019,02,26,15,32,4.10
2019,02,26,15,33,4.20
2019,02,26,15,34,4.20
2019,02,26,15,35,4.20
2019,02,26,15,36,4.20
2019,02,26,15,37,4.20
2019,02,26,15,38,4.10
2019,02,26,15,39,4.10
2019,02,26,15,40,4.10
2019,02,26,15,41,4.10
2019,02,26,15,42,4.10
2019,02,26,15,43,4.00
2019,02,26,15,44,4.10
2019,02,26,15,45,4.10
2019,02,26,15,46,4.10
2019,02,26,15,47,4.10
2019,02,26,15,48,4.10
2019,02,26,15,49,4.10
2019,02,26,15,50,4.10
2019,02,26,15,51,4.10
2019,02,26,15,52,4.10
2019,02,26,15,53,4.00
2019,02,26,15,54,4.10
2019,02,26,15,55,4.10
2019,02,26,15,56,4.10
2019,02,26,15,57,4.10
2019,02,26,15,58,4.00
2019,02,26,15,59,4.00
2019,02,26,16,00,4.00
2019,02,26,16,01,4.00
2019,02,26,16,02,3.90
2019,02,26,16,03,4.00
2019,02,26,16,04,4.00
2019,02,26,16,05,4.00
2019,02,26,16,06,4.00
2019,02,26,16,07,4.00
2019,02,26,16,08,4.00
2019,02,26,16,09,4.00
2019,02,26,16,10,4.00
2019,02,26,16,11,4.00
2019,02,26,16,12,4.00
2019,02,26,16,13,3.90
2019,02,26,16,14,3.90
2019,02,26,16,15,3.90
2019,02,26,16,16,3.90
2019,02,26,16,17,3.90
2019,02,26,16,18,3.90
2019,02,26,16,19,3.90
2019,02,26,16,20,3.90
2019,02,26,16,21,4.00
2019,02,26,16,22,3.90
2019,02,26,16,23,3.90
2019,02,26,16,24,3.90
2019,02,26,16,25,3.90
2019,02,26,16,26,3.90
2019,02,26,16,27,3.90
2019,02,26,16,28,3.90
2019,02,26,16,29,3.90
2019,02,26,16,30,3.90
2019,02,26,16,31,3.90
2019,02,26,16,32,3.90
2019,02,26,16,33,3.80
2019,02,26,16,34,3.80
2019,02,26,16,35,3.80
2019,02,26,16,36,3.80
2019,02,26,16,37,3.80
2019,02,26,16,38,3.80
2019,02,26,16,39,3.70
2019,02,26,16,40,3.70
2019,02,26,16,41,3.70
2019,02,26,16,42,3.70
2019,02,26,16,43,3.70
2019,02,26,16,44,3.70
2019,02,26,16,45,3.70
2019,02,26,16,46,3.60
2019,02,26,16,47,3.60
2019,02,26,16,48,3.60
2019,02,26,16,49,3.60
2019,02,26,16,50,3.60
2019,02,26,16,51,3.50
2019,02,26,16,52,3.50
2019,02,26,16,53,3.50
2019,02,26,16,54,3.50
2019,02,26,16,55,3.50
2019,02,26,16,56,3.50
2019,02,26,16,57,3.40
2019,02,26,16,59,3.40
2019,02,26,17,00,3.40
2019,02,26,17,01,3.40
2019,02,26,17,02,3.40
2019,02,26,17,03,3.40
2019,02,26,17,04,3.40
2019,02,26,17,05,3.30
2019,02,26,17,06,3.30
2019,02,26,17,07,3.30
2019,02,26,17,08,3.30
2019,02,26,17,09,3.30
2019,02,26,17,10,3.30
2019,02,26,17,11,3.30
2019,02,26,17,12,3.30
2019,02,26,17,13,3.30
2019,02,26,17,14,3.30
2019,02,26,17,15,3.30
2019,02,26,17,16,3.20
2019,02,26,17,17,3.20
2019,02,26,17,18,3.20
2019,02,26,17,19,3.20
2019,02,26,17,20,3.20
2019,02,26,17,22,3.20
2019,02,26,17,23,3.20
2019,02,26,17,24,3.20
2019,02,26,17,25,3.20
2019,02,26,17,26,3.10
2019,02,26,17,27,3.10
2019,02,26,17,28,3.10
2019,02,26,17,29,3.10
2019,02,26,17,30,3.10
2019,02,26,17,31,3.10
2019,02,26,17,32,3.00
2019,02,26,17,33,3.00
2019,02,26,17,34,3.00
2019,02,26,17,35,2.90
2019,02,26,17,36,2.90
2019,02,26,17,37,2.90
2019,02,26,17,38,2.90
2019,02,26,17,39,2.90
2019,02,26,17,40,2.80
2019,02,26,17,41,2.80
2019,02,26,17,42,2.80
2019,02,26,17,43,2.80
2019,02,26,17,44,2.80
2019,02,26,17,45,2.80
2019,02,26,17,46,2.80
2019,02,26,17,47,2.70
2019,02,26,17,48,2.70
2019,02,26,17,49,2.70
2019,02,26,17,50,2.70
2019,02,26,17,51,2.70
2019,02,26,17,52,2.60
2019,02,26,17,53,2.60
2019,02,26,17,54,2.60
2019,02,26,17,55,2.60
2019,02,26,17,56,2.60
2019,02,26,17,57,2.60
2019,02,26,17,59,2.50
2019,02,26,18,00,2.50
2019,02,26,18,01,2.40
2019,02,26,18,02,2.40
2019,02,26,18,03,2.40
2019,02,26,18,04,2.40
2019,02,26,18,05,2.40
2019,02,26,18,06,2.30
2019,02,26,18,07,2.30
2019,02,26,18,08,2.30
2019,02,26,18,09,2.30
2019,02,26,18,10,2.30
2019,02,26,18,11,2.30
2019,02,26,18,12,2.30
2019,02,26,18,13,2.20
2019,02,26,18,14,2.20
2019,02,26,18,15,2.20
2019,02,26,18,16,2.20
2019,02,26,18,17,2.20
2019,02,26,18,18,2.10
2019,02,26,18,19,2.10
2019,02,26,18,20,2.10
2019,02,26,18,21,2.10
2019,02,26,18,22,2.00
2019,02,26,18,23,2.00
2019,02,26,18,24,2.00
2019,02,26,18,25,1.90
2019,02,26,18,26,1.90
2019,02,26,18,27,1.90
2019,02,26,18,28,1.90
2019,02,26,18,29,1.90
2019,02,26,18,30,1.90
2019,02,26,18,31,1.90
2019,02,26,18,32,1.80
2019,02,26,18,33,1.80
2019,02,26,18,34,1.80
2019,02,26,18,35,1.80
2019,02,26,18,36,1.70
2019,02,26,18,37,1.70
2019,02,26,18,38,1.70
2019,02,26,18,39,1.70
2019,02,26,18,40,1.70
2019,02,26,18,41,1.60
2019,02,26,18,42,1.60
2019,02,26,18,43,1.60
2019,02,26,18,44,1.50
2019,02,26,18,45,1.50
2019,02,26,18,46,1.50
2019,02,26,18,47,1.40
2019,02,26,18,49,1.40
2019,02,26,18,50,1.40
2019,02,26,18,51,1.40
2019,02,26,18,52,1.40
2019,02,26,18,53,1.40
2019,02,26,18,54,1.30
2019,02,26,18,55,1.30
2019,02,26,18,56,1.30
2019,02,26,18,57,1.30
2019,02,26,18,58,1.30
2019,02,26,18,59,1.30
2019,02,26,19,00,1.30
2019,02,26,19,01,1.30
2019,02,26,19,02,1.30
2019,02,26,19,03,1.30
2019,02,26,19,04,1.30
2019,02,26,19,05,1.30
2019,02,26,19,06,1.30
2019,02,26,19,07,1.30
2019,02,26,19,08,1.30
2019,02,26,19,09,1.30
2019,02,26,19,10,1.30
2019,02,26,19,11,1.20
2019,02,26,19,12,1.20
2019,02,26,19,13,1.20
2019,02,26,19,14,1.20
2019,02,26,19,15,1.30
2019,02,26,19,16,1.20
2019,02,26,19,17,1.20
2019,02,26,19,18,1.30
2019,02,26,19,19,1.30
2019,02,26,19,20,1.30
2019,02,26,19,21,1.30
2019,02,26,19,22,1.30
2019,02,26,19,24,1.30
2019,02,26,19,25,1.20
2019,02,26,19,26,1.20
2019,02,26,19,27,1.20
2019,02,26,19,28,1.10
2019,02,26,19,30,1.10
2019,02,26,19,31,1.10
2019,02,26,19,32,1.10
2019,02,26,19,33,1.10
2019,02,26,19,34,1.10
2019,02,26,19,35,1.10
2019,02,26,19,36,1.10
2019,02,26,19,37,1.10
2019,02,26,19,38,1.10
2019,02,26,19,39,1.20
2019,02,26,19,40,1.20
2019,02,26,19,41,1.20
2019,02,26,19,42,1.30
2019,02,26,19,44,1.30
2019,02,26,19,46,1.40
2019,02,26,19,47,1.40
2019,02,26,19,48,1.40
2019,02,26,19,49,1.40
2019,02,26,19,50,1.30
2019,02,26,19,51,1.30
2019,02,26,19,52,1.30
2019,02,26,19,53,1.20
2019,02,26,19,54,1.20
2019,02,26,19,55,1.10
2019,02,26,19,57,1.10
2019,02,26,19,58,1.10
2019,02,26,19,59,1.10
2019,02,26,20,00,1.10
2019,02,26,20,01,1.10
2019,02,26,20,02,1.10
2019,02,26,20,03,1.10
2019,02,26,20,04,1.10
2019,02,26,20,05,1.20
2019,02,26,20,06,1.20
2019,02,26,20,07,1.20
2019,02,26,20,08,1.10
2019,02,26,20,09,1.10
2019,02,26,20,10,1.10
2019,02,26,20,11,1.00
2019,02,26,20,12,0.90
2019,02,26,20,13,0.80
2019,02,26,20,14,0.80
2019,02,26,20,16,0.70
2019,02,26,20,17,0.60
2019,02,26,20,18,0.50
2019,02,26,20,19,0.40
2019,02,26,20,20,0.30
2019,02,26,20,21,0.30
2019,02,26,20,22,0.20
2019,02,26,20,23,0.10
2019,02,26,20,24,-0.10
2019,02,26,20,26,-0.10
2019,02,26,20,27,-0.20
2019,02,26,20,28,-0.30
2019,02,26,20,29,-0.30
2019,02,26,20,30,-0.30
2019,02,26,20,31,-0.40
2019,02,26,20,32,-0.40
2019,02,26,20,33,-0.40
2019,02,26,20,35,-0.50
2019,02,26,20,37,-0.60
2019,02,26,20,38,-0.60
2019,02,26,20,39,-0.60
2019,02,26,20,40,-0.60
2019,02,26,20,41,-0.60
2019,02,26,20,42,-0.60
2019,02,26,20,44,-0.70
2019,02,26,20,45,-0.70
2019,02,26,20,46,-0.70
2019,02,26,20,47,-0.70
2019,02,26,20,48,-0.80
2019,02,26,20,49,-0.80
2019,02,26,20,50,-0.80
2019,02,26,20,51,-0.90
2019,02,26,20,52,-0.90
2019,02,26,20,53,-1.00
2019,02,26,20,54,-1.00
2019,02,26,20,55,-1.10
2019,02,26,20,56,-1.10
2019,02,26,20,57,-1.10
2019,02,26,20,58,-1.10
2019,02,26,20,59,-1.20
2019,02,26,21,00,-1.20
2019,02,26,21,02,-1.20
2019,02,26,21,03,-1.30
2019,02,26,21,04,-1.30
2019,02,26,21,05,-1.30
2019,02,26,21,06,-1.40
2019,02,26,21,07,-1.40
2019,02,26,21,08,-1.40
2019,02,26,21,09,-1.50
2019,02,26,21,10,-1.50
2019,02,26,21,11,-1.60
2019,02,26,21,12,-1.60
2019,02,26,21,13,-1.60
2019,02,26,21,14,-1.60
2019,02,26,21,15,-1.70
2019,02,26,21,16,-1.70
2019,02,26,21,18,-1.70
2019,02,26,21,19,-1.70
2019,02,26,21,21,-1.80
2019,02,26,21,23,-1.70
2019,02,26,21,24,-1.70
2019,02,26,21,26,-1.60
2019,02,26,21,27,-1.50
2019,02,26,21,28,-1.40
2019,02,26,21,29,-1.40
2019,02,26,21,30,-1.40
2019,02,26,21,31,-1.30
2019,02,26,21,32,-1.30
2019,02,26,21,33,-1.30
2019,02,26,21,34,-1.30
2019,02,26,21,35,-1.40
2019,02,26,21,37,-1.40
2019,02,26,21,38,-1.50
2019,02,26,21,39,-1.60
2019,02,26,21,40,-1.60
2019,02,26,21,42,-1.70
2019,02,26,21,43,-1.90
2019,02,26,21,45,-1.90
2019,02,26,21,46,-2.00
2019,02,26,21,47,-2.10
2019,02,26,21,48,-2.10
2019,02,26,21,49,-2.10
2019,02,26,21,50,-2.10
2019,02,26,21,51,-2.20
2019,02,26,21,52,-2.20
2019,02,26,21,54,-2.20
2019,02,26,21,55,-2.20
2019,02,26,21,56,-2.20
2019,02,26,21,57,-2.10
2019,02,26,21,58,-2.20
2019,02,26,21,59,-2.20
2019,02,26,22,01,-2.20
2019,02,26,22,02,-2.30
2019,02,26,22,04,-2.30
2019,02,26,22,05,-2.30
2019,02,26,22,06,-2.30
2019,02,26,22,07,-2.30
2019,02,26,22,08,-2.40
2019,02,26,22,09,-2.40
2019,02,26,22,10,-2.40
2019,02,26,22,12,-2.40
2019,02,26,22,13,-2.50
2019,02,26,22,14,-2.50
2019,02,26,22,15,-2.50
2019,02,26,22,17,-2.60
2019,02,26,22,18,-2.60
2019,02,26,22,19,-2.60
2019,02,26,22,20,-2.60
2019,02,26,22,22,-2.70
2019,02,26,22,23,-2.70
2019,02,26,22,24,-2.70
2019,02,26,22,25,-2.70